FW5820 New Haven CT US current weather conditions

sailwx.info

Wind from 054 at 4 knots gusting 13

Air temperature 23.9° C
Dewpoint 22.0° C

Last reported at 2020-Jul-10 21:10 UTC.
Time now 2020-Jul-10 22:15 UTC

Location: N 41°18' W 072°56'.
View on Google Maps.

See reports from other nearby stations

  
Tides and Currents Weather Stations Pressure Air Temp Water Temp Dewpoint Dewpoint Depression Visibility Wind Speed Wind Dir Waves Ship Positions
date/time (UTC)wind fromknots sea level pressurealtimeterstation pressurevisibilityair tempwater tempwave heightnotes
2020-Jul-10 21:10 054 4 gusting 13 23.9
2020-Jul-10 21:00 064 6 gusting 13 23.9
2020-Jul-10 20:50 082 5 gusting 15 23.9
2020-Jul-10 20:40 050 6 gusting 15 23.9
2020-Jul-10 20:30 044 5 gusting 11 24.4
2020-Jul-10 20:20 062 3 gusting 15 23.9
2020-Jul-10 20:10 072 5 gusting 13 24.4
2020-Jul-10 20:00 059 5 gusting 13 24.4
2020-Jul-10 19:50 060 5 gusting 12 24.4
2020-Jul-10 19:40 053 5 gusting 13 24.4
2020-Jul-10 19:30 053 4 gusting 18 25.0
2020-Jul-10 19:20 035 4 gusting 12 24.4
2020-Jul-10 19:10 040 4 gusting 13 24.4
2020-Jul-10 19:00 052 4 gusting 13 24.4
2020-Jul-10 18:50 043 3 gusting 17 24.4
2020-Jul-10 18:40 038 5 gusting 15 24.4
2020-Jul-10 18:30 045 2 gusting 13 25.0
2020-Jul-10 18:20 037 4 gusting 13 25.0
2020-Jul-10 18:10 043 5 gusting 13 25.0
2020-Jul-10 18:00 052 3 gusting 9 25.0
2020-Jul-10 17:50 068 3 gusting 13 24.4
2020-Jul-10 17:40 063 6 gusting 13 24.4
2020-Jul-10 17:30 062 1 gusting 13 24.4
2020-Jul-10 17:20 071 4 gusting 13 24.4
2020-Jul-10 17:10 054 3 gusting 15 24.4
2020-Jul-10 17:00 085 4 gusting 15 25.0
2020-Jul-10 16:50 077 3 gusting 12 25.0
2020-Jul-10 16:40 070 5 gusting 13 25.6
2020-Jul-10 16:30 056 4 gusting 12 26.7
2020-Jul-10 16:20 065 2 gusting 12 26.7
2020-Jul-10 16:10 076 4 gusting 11 26.1
2020-Jul-10 16:00 071 3 gusting 12 26.7
2020-Jul-10 15:50 083 4 gusting 18 26.7
2020-Jul-10 15:40 054 6 gusting 18 26.7
2020-Jul-10 15:30 086 3 gusting 10 27.2
2020-Jul-10 15:20 048 4 gusting 10 27.2
2020-Jul-10 15:10 048 2 gusting 7 27.2
2020-Jul-10 15:00 074 3 gusting 13 26.1
2020-Jul-10 14:50 063 4 gusting 10 26.1
2020-Jul-10 14:40 046 2 gusting 10 26.1
2020-Jul-10 14:30 072 2 gusting 9 25.6
2020-Jul-10 14:20 071 3 gusting 9 25.0
2020-Jul-10 14:10 086 1 gusting 6 25.6
2020-Jul-10 14:00 073 0 gusting 6 25.0
2020-Jul-10 13:50 049 1 gusting 8 25.0
2020-Jul-10 13:40 059 2 gusting 8 25.0
2020-Jul-10 13:30 036 2 gusting 7 25.0
2020-Jul-10 13:20 042 1 gusting 8 25.0
2020-Jul-10 13:10 040 2 gusting 11 24.4
2020-Jul-10 13:00 037 5 gusting 11 24.4
2020-Jul-10 12:50 046 4 gusting 9 24.4
2020-Jul-10 12:40 038 2 gusting 10 23.9
2020-Jul-10 12:30 036 4 gusting 11 23.9
2020-Jul-10 12:20 042 0 gusting 6 23.9
2020-Jul-10 12:10 034 0 gusting 7 23.3
2020-Jul-10 12:00 039 4 gusting 7 23.3
2020-Jul-10 11:50 036 1 gusting 6 23.3
2020-Jul-10 11:40 042 2 gusting 6 22.8
2020-Jul-10 11:30 041 1 gusting 6 22.8
2020-Jul-10 11:20 038 2 gusting 6 22.8
2020-Jul-10 11:10 043 0 gusting 3 22.8
2020-Jul-10 11:00 061 0 gusting 4 22.8
2020-Jul-10 10:50 053 0 gusting 4 22.8
2020-Jul-10 10:40 044 1 gusting 5 22.8
2020-Jul-10 10:30 038 0 gusting 6 22.8
2020-Jul-10 10:20 037 1 gusting 6 22.2
2020-Jul-10 10:10 054 0 gusting 4 22.2
2020-Jul-10 10:00 035 1 gusting 4 22.2
2020-Jul-10 09:50 040 0 gusting 5 22.2
2020-Jul-10 09:40 038 1 gusting 5 22.8
2020-Jul-10 09:30 086 0 gusting 4 22.8
2020-Jul-10 09:20 105 1 gusting 5 22.8
2020-Jul-10 09:10 086 0 gusting 5 22.8
2020-Jul-10 09:00 051 1 gusting 5 22.8
2020-Jul-10 08:50 047 0 gusting 6 22.8
2020-Jul-10 08:40 051 1 gusting 4 22.8
2020-Jul-10 08:30 052 0 gusting 3 22.8
2020-Jul-10 08:20 041 0 gusting 4 22.8
2020-Jul-10 08:10 043 1 gusting 4 22.8
2020-Jul-10 08:00 020 0 gusting 2 22.8
2020-Jul-10 07:50 049 0 gusting 5 22.8
2020-Jul-10 07:40 038 1 gusting 5 22.8
2020-Jul-10 07:30 043 0 gusting 3 22.8
2020-Jul-10 07:20 045 0 gusting 2 22.8
2020-Jul-10 07:10 036 0 gusting 2 23.3
2020-Jul-10 07:00 032 23.3
2020-Jul-10 06:50 053 23.3
2020-Jul-10 06:40 046 0 gusting 5 23.3
2020-Jul-10 06:30 047 1 gusting 5 23.3
2020-Jul-10 06:20 098 0 gusting 4 23.3
2020-Jul-10 06:10 074 0 gusting 6 23.3
2020-Jul-10 06:00 120 1 gusting 6 23.3
2020-Jul-10 05:51 128 1 gusting 5 23.3
2020-Jul-10 05:40 123 1 gusting 6 23.3
2020-Jul-10 05:30 128 1 gusting 5 23.3
2020-Jul-10 05:20 118 1 gusting 5 23.3
2020-Jul-10 05:10 133 0 gusting 5 23.3
2020-Jul-10 05:00 114 1 gusting 5 23.3
2020-Jul-10 04:50 115 0 gusting 3 23.3
2020-Jul-10 04:40 120 0 gusting 3 23.3
2020-Jul-10 04:30 054 0 gusting 3 23.3
2020-Jul-10 04:20 046 0 gusting 2 23.9
2020-Jul-10 04:10 089 0 gusting 2 23.9
2020-Jul-10 04:00 081 23.9
2020-Jul-10 03:50 050 0 gusting 2 23.9
2020-Jul-10 03:40 050 0 gusting 1 23.9
2020-Jul-10 03:30 122 24.4
2020-Jul-10 03:20 135 1 gusting 4 24.4
2020-Jul-10 03:10 140 0 gusting 4 24.4
2020-Jul-10 03:00 125 2 gusting 5 24.4
2020-Jul-10 02:50 133 1 gusting 4 24.4
2020-Jul-10 02:40 133 1 gusting 5 24.4
2020-Jul-10 02:30 128 2 gusting 5 24.4
2020-Jul-10 02:20 133 1 gusting 6 24.4
2020-Jul-10 02:10 132 1 gusting 5 24.4
2020-Jul-10 02:00 132 1 gusting 5 24.4
2020-Jul-10 01:50 144 0 gusting 3 25.0
2020-Jul-10 01:40 240 0 gusting 5 25.0
2020-Jul-10 01:30 161 0 gusting 6 25.0
2020-Jul-10 01:20 191 0 gusting 5 25.0
2020-Jul-10 01:10 172 0 gusting 6 25.0
2020-Jul-10 01:00 141 2 gusting 6 25.6
2020-Jul-10 00:50 163 1 gusting 7 25.6
2020-Jul-10 00:40 144 3 gusting 8 25.6
2020-Jul-10 00:30 147 3 gusting 8 25.6
2020-Jul-10 00:20 144 3 gusting 10 26.1
2020-Jul-10 00:10 147 4 gusting 10 26.1
2020-Jul-10 00:00 132 4 gusting 10 26.7
2020-Jul-09 23:50 148 5 gusting 11 27.2
2020-Jul-09 23:40 144 4 gusting 11 27.2
2020-Jul-09 23:30 146 6 gusting 11 27.8
2020-Jul-09 23:20 141 6 gusting 11 27.8
2020-Jul-09 23:10 148 6 gusting 12 27.8
2020-Jul-09 23:00 144 5 gusting 14 28.3
2020-Jul-09 22:50 146 6 gusting 18 28.3
2020-Jul-09 22:40 151 5 gusting 13 28.9
2020-Jul-09 22:30 148 5 gusting 13 29.4
2020-Jul-09 22:20 143 6 gusting 12 29.4
2020-Jul-09 22:10 165 4 gusting 12 30.0
2020-Jul-09 22:00 158 5 gusting 11 30.0
2020-Jul-09 21:50 156 4 gusting 11 30.6
2020-Jul-09 21:40 153 4 gusting 10 30.6
2020-Jul-09 21:30 147 5 gusting 11 30.0
2020-Jul-09 21:20 152 4 gusting 11 30.0
2020-Jul-09 21:10 147 5 gusting 12 30.0
2020-Jul-09 21:00 143 5 gusting 11 30.6
2020-Jul-09 20:50 157 4 gusting 11 30.6
2020-Jul-09 20:40 169 5 gusting 13 30.6
2020-Jul-09 20:30 148 5 gusting 10 30.6
2020-Jul-09 20:20 147 4 gusting 10 30.6
2020-Jul-09 20:10 154 4 gusting 9 31.1
2020-Jul-09 20:00 163 3 gusting 11 30.6
2020-Jul-09 19:50 143 5 gusting 11 30.6
2020-Jul-09 19:40 145 4 gusting 12 30.0
2020-Jul-09 19:30 164 3 gusting 9 30.6
2020-Jul-09 19:20 154 4 gusting 11 30.0
2020-Jul-09 19:10 150 4 gusting 11 30.0
2020-Jul-09 19:00 144 4 gusting 11 30.6
2020-Jul-09 18:50 140 5 gusting 11 30.6
2020-Jul-09 18:40 146 4 gusting 12 30.6
2020-Jul-09 18:30 139 4 gusting 11 30.0
2020-Jul-09 18:20 139 5 gusting 11 30.0
2020-Jul-09 18:10 142 6 gusting 10 30.0
2020-Jul-09 18:00 147 4 gusting 8 30.0
2020-Jul-09 17:50 147 4 gusting 12 29.4
2020-Jul-09 17:40 142 6 gusting 11 29.4
2020-Jul-09 17:30 140 6 gusting 13 30.0
2020-Jul-09 17:20 147 6 gusting 13 30.0
2020-Jul-09 17:10 143 6 gusting 12 30.0
2020-Jul-09 17:00 140 6 gusting 12 30.0
2020-Jul-09 16:50 148 6 gusting 12 30.0
2020-Jul-09 16:40 143 5 gusting 10 30.0
2020-Jul-09 16:30 127 5 gusting 11 29.4
2020-Jul-09 16:20 143 2 gusting 10 29.4
2020-Jul-09 16:10 129 4 gusting 9 29.4
2020-Jul-09 16:00 129 4 gusting 8 28.9
2020-Jul-09 15:50 137 4 gusting 10 28.3
2020-Jul-09 15:40 139 6 gusting 10 27.8
2020-Jul-09 15:30 148 4 gusting 10 28.3
2020-Jul-09 15:20 139 5 gusting 10 27.8
2020-Jul-09 15:10 122 3 gusting 7 28.3
2020-Jul-09 15:00 117 3 gusting 8 28.3
2020-Jul-09 14:50 161 0 gusting 6 28.3
2020-Jul-09 14:40 136 2 gusting 6 27.8
2020-Jul-09 14:30 148 2 gusting 6 27.2
2020-Jul-09 14:20 139 3 gusting 6 27.8
2020-Jul-09 14:10 143 2 gusting 6 27.2
2020-Jul-09 14:00 143 2 gusting 6 27.8
2020-Jul-09 13:50 146 0 gusting 4 27.2
2020-Jul-09 13:40 225 1 gusting 4 27.2
2020-Jul-09 13:30 141 1 gusting 6 26.1
2020-Jul-09 13:20 143 3 gusting 6 25.6
2020-Jul-09 13:10 299 2 gusting 6 25.0
2020-Jul-09 13:00 276 2 gusting 5 25.0
2020-Jul-09 12:50 281 1 gusting 5 25.0
2020-Jul-09 12:40 281 2 gusting 6 24.4
2020-Jul-09 12:30 248 2 gusting 4 24.4
2020-Jul-09 12:20 288 1 gusting 6 23.9
2020-Jul-09 12:10 270 4 gusting 6 23.9
2020-Jul-09 12:00 278 4 gusting 6 23.9
2020-Jul-09 11:50 151 0 gusting 4 23.9
2020-Jul-09 11:40 142 1 gusting 4 23.3
2020-Jul-09 11:30 142 1 gusting 5 23.3
2020-Jul-09 11:20 263 2 gusting 5 23.3
2020-Jul-09 11:10 147 0 gusting 4 22.8
2020-Jul-09 11:00 133 0 gusting 4 22.8
2020-Jul-09 10:50 131 1 gusting 4 22.8
2020-Jul-09 10:40 157 22.8
2020-Jul-09 10:30 146 0 gusting 1 22.8
2020-Jul-09 10:20 137 22.8
2020-Jul-09 10:10 144 22.8
2020-Jul-09 10:00 140 0 gusting 6 22.8
2020-Jul-09 09:50 144 2 gusting 6 22.8
2020-Jul-09 09:40 140 1 gusting 4 22.8
2020-Jul-09 09:30 161 0 gusting 2 22.8
2020-Jul-09 09:20 162 22.8
2020-Jul-09 09:10 148 22.8
2020-Jul-09 09:00 22.2
2020-Jul-09 08:50 22.2
2020-Jul-09 08:40 22.2
2020-Jul-09 08:30 22.2
2020-Jul-09 08:20 008 0 gusting 1 22.2
2020-Jul-09 08:10 001 22.2
2020-Jul-09 08:00 001 0 gusting 2 22.2
2020-Jul-09 07:50 025 22.8
2020-Jul-09 07:40 22.8
2020-Jul-09 07:30 22.8
2020-Jul-09 07:20 006 22.8
2020-Jul-09 07:10 045 22.8
2020-Jul-09 07:00 22.8
2020-Jul-09 06:50 139 22.8
2020-Jul-09 06:40 143 0 gusting 3 22.8
2020-Jul-09 06:30 138 0 gusting 4 22.8
2020-Jul-09 06:20 144 2 gusting 5 22.8
2020-Jul-09 06:10 146 3 gusting 6 22.8
2020-Jul-09 06:00 139 3 gusting 6 22.8
2020-Jul-09 05:50 141 4 gusting 6 22.8
2020-Jul-09 05:40 151 4 gusting 7 22.8
2020-Jul-09 05:30 145 2 gusting 6 22.8
2020-Jul-09 05:20 152 4 gusting 6 22.8
2020-Jul-09 05:10 145 2 gusting 6 22.8
2020-Jul-09 05:00 145 1 gusting 4 22.8
2020-Jul-09 04:50 149 2 gusting 4 22.8
2020-Jul-09 04:40 143 1 gusting 4 22.8
2020-Jul-09 04:30 142 2 gusting 4 23.3
2020-Jul-09 04:20 147 2 gusting 6 23.3
2020-Jul-09 04:10 149 3 gusting 6 23.3
2020-Jul-09 04:00 147 3 gusting 6 23.3
2020-Jul-09 03:50 146 1 gusting 6 23.3
2020-Jul-09 03:40 136 2 gusting 6 23.3
2020-Jul-09 03:30 146 2 gusting 6 23.3
2020-Jul-09 03:20 141 2 gusting 5 23.3
2020-Jul-09 03:10 146 2 gusting 4 23.3
2020-Jul-09 03:00 130 2 gusting 4 23.3
2020-Jul-09 02:50 131 0 gusting 5 23.3
2020-Jul-09 02:40 144 2 gusting 5 23.3
2020-Jul-09 02:30 145 0 gusting 5 23.3
2020-Jul-09 02:20 133 1 gusting 5 23.3
2020-Jul-09 02:10 140 0 gusting 6 23.3
2020-Jul-09 02:00 138 3 gusting 6 23.3
2020-Jul-09 01:50 145 2 gusting 6 23.3
2020-Jul-09 01:40 137 3 gusting 6 23.3
2020-Jul-09 01:30 139 3 gusting 6 23.3
2020-Jul-09 01:20 147 2 gusting 6 23.3
2020-Jul-09 01:10 152 2 gusting 6 23.9
2020-Jul-09 01:00 140 3 gusting 6 23.9
2020-Jul-09 00:50 135 1 gusting 4 24.4
2020-Jul-09 00:40 149 1 gusting 3 24.4
2020-Jul-09 00:30 158 0 gusting 4 24.4
2020-Jul-09 00:20 156 0 gusting 3 25.0
2020-Jul-09 00:10 160 1 gusting 3 25.0
2020-Jul-09 00:00 133 0 gusting 3 25.0
2020-Jul-08 23:50 117 0 gusting 4 25.0
2020-Jul-08 23:40 142 0 gusting 4 25.0
2020-Jul-08 23:30 143 1 gusting 6 25.6
2020-Jul-08 23:20 171 1 gusting 5 25.6
2020-Jul-08 23:10 158 2 gusting 6 26.1
2020-Jul-08 23:00 154 3 gusting 6 26.1
2020-Jul-08 22:50 162 1 gusting 5 26.1
2020-Jul-08 22:40 191 0 gusting 3 26.1
2020-Jul-08 22:30 307 1 gusting 5 25.6
2020-Jul-08 22:20 346 2 gusting 6 25.0
2020-Jul-08 22:10 240 3 gusting 8 25.0
2020-Jul-08 22:00 334 2 gusting 6 24.4